Station ACYN4 - 8534720 - Atlantic City, NJ Image indicating link to RSS feed of recent meteorological observations for station ACYN4


Conditions at ACYN4 as of
(10:48 pm EDT on 04/14/2024)
0248 GMT on 04/15/2024:
     

Click on the graph icon in the table below to see a time series plot of the last five days of that observation.

5-day plot - Atmospheric Pressure Atmospheric Pressure (PRES):29.80 in
5-day plot - Air Temperature Air Temperature (ATMP): 63.9 °F
5-day plot - Water Temperature Water Temperature (WTMP): 50.4 °F
NOS Water Level Observation Network Water Level
Previous observations
TIME
(EDT)
5-day plot - Wind Direction
WDIR
 
5-day plot - Wind Speed
WSPD
kts
5-day plot - Wind Gust
GST
kts
5-day plot - Wave Height
WVHT
ft
5-day plot - Dominant Wave Period
DPD
sec
5-day plot - Average Wave Period
APD
sec
5-day plot - Mean Wave Direction
MWD
 
5-day plot - Atmospheric Pressure
PRES
in
5-day plot - Pressure Tendency
PTDY
in
5-day plot - Air Temperature
ATMP
°F
5-day plot - Water Temperature
WTMP
°F
5-day plot - Dew Point
DEWP
°F
5-day plot - Salinity
SAL
psu
5-day plot - Visibility
VIS
nmi
5-day plot - Tide (above MLLW)
TIDE
ft
2024-04-14 10:42 pm-------29.80- 63.3 50.4----
2024-04-14 10:36 pm-------29.75- 63.0 50.4----
2024-04-14 10:30 pm-------29.80- 57.7 50.4----
2024-04-14 10:24 pm-------29.74- 52.9 50.4----
2024-04-14 10:18 pm-------29.71- 52.9 50.2----
2024-04-14 10:12 pm-------29.72- 53.1 50.2----
2024-04-14 10:06 pm-------29.72- 53.1 50.4----
2024-04-14 10:00 pm-------29.72+0.04 53.1 50.2----
2024-04-14 09:54 pm-------29.72- 53.2 50.2----
2024-04-14 09:48 pm-------29.72- 53.2 50.2----
2024-04-14 09:42 pm-------29.71- 53.2 50.2----
2024-04-14 09:36 pm-------29.71- 53.4 50.4----
2024-04-14 09:30 pm-------29.71- 53.6 50.2----
2024-04-14 09:24 pm-------29.71- 53.6 50.2----
2024-04-14 09:18 pm-------29.71- 53.8 50.2----
2024-04-14 09:12 pm-------29.71- 53.8 50.2----
2024-04-14 09:06 pm-------29.70- 54.1 50.2----
2024-04-14 09:00 pm-------29.70+0.00 54.3 50.2----
2024-04-14 08:54 pm-------29.70- 54.5 50.2----
2024-04-14 08:48 pm-------29.69-- 50.0----
2024-04-14 08:42 pm-------29.68-- 50.2----
2024-04-14 08:36 pm-------29.67-- 50.0----
2024-04-14 08:30 pm-------29.66- 54.5 50.0----
2024-04-14 08:24 pm-------29.66- 54.5 50.0----
2024-04-14 08:18 pm--------- 54.1 50.0----
2024-04-14 08:12 pm--------- 54.1 50.0----
2024-04-14 08:06 pm--------- 53.8 50.0----
2024-04-14 08:00 pm-------29.66-0.06 54.0 50.0----
2024-04-14 07:54 pm-------29.66- 54.0 50.2----
2024-04-14 07:48 pm-------29.66- 54.1 50.2----
2024-04-14 07:42 pm-------29.66- 54.1 50.4----
2024-04-14 07:36 pm-------29.67- 54.1 50.2----
2024-04-14 07:30 pm-------29.67- 54.1 50.4----
2024-04-14 07:24 pm-------29.67- 54.1 50.4----
2024-04-14 07:00 pm-------29.68-0.06- 50.9----
2024-04-14 06:54 pm-------29.68-- 51.1----
2024-04-14 06:48 pm-------29.68- 54.5 51.3----
2024-04-14 06:42 pm-------29.69- 54.5 51.1----
2024-04-14 06:36 pm-------29.69- 54.5 51.3----
2024-04-14 06:30 pm-------29.70- 54.7 51.3----
2024-04-14 06:24 pm-------29.70- 54.7 51.4----
2024-04-14 06:18 pm-------29.70- 54.9 51.3----
2024-04-14 06:12 pm-------29.70- 55.0 51.1----
2024-04-14 06:06 pm-------29.70- 55.2 50.9----
2024-04-14 06:00 pm-------29.70-0.08 55.4 51.3----
2024-04-14 05:54 pm-------29.70- 55.6 51.1----
2024-04-14 05:48 pm-------29.70-- 50.9----
2024-04-14 05:42 pm-------29.70-- 50.9----
2024-04-14 05:36 pm-------29.70-- 50.7----
2024-04-14 05:30 pm-------29.71-- 50.5----
2024-04-14 05:24 pm-------29.71-- 50.5----
2024-04-14 05:18 pm-------29.71- 55.6 50.7----
2024-04-14 05:12 pm-------29.71- 55.4 50.5----
2024-04-14 05:06 pm-------29.72- 55.2 50.7----
2024-04-14 05:00 pm-------29.72-0.11 55.2 50.5----
2024-04-14 04:54 pm-------29.72- 55.2 50.7----
2024-04-14 04:48 pm-------29.71- 55.4 50.7----
2024-04-14 04:42 pm-------29.72- 55.4 50.9----
2024-04-14 04:36 pm-------29.72- 55.4 50.9----
2024-04-14 04:30 pm-------29.72- 55.4 51.1----
2024-04-14 04:24 pm-------29.73- 55.2 50.9----
2024-04-14 04:18 pm-------29.73- 55.2 50.5----
2024-04-14 04:12 pm-------29.73- 55.0 50.2----
2024-04-14 04:06 pm-------29.74- 54.9 50.4----
2024-04-14 04:00 pm-------29.74-0.14 54.7 50.2----
2024-04-14 03:54 pm-------29.75- 54.7 50.2----
2024-04-14 03:48 pm-------29.75- 54.7 49.8----
2024-04-14 03:42 pm-------29.75- 54.7 50.0----
2024-04-14 03:36 pm-------29.75- 54.7 49.8----
2024-04-14 03:30 pm-------29.75- 54.5 49.6----
2024-04-14 03:24 pm-------29.76- 54.7 50.0----
2024-04-14 03:18 pm-------29.76- 54.7 50.0----
2024-04-14 03:12 pm-------29.76- 54.7 49.8----
2024-04-14 03:06 pm-------29.77- 54.5 50.0----
2024-04-14 03:00 pm-------29.78-0.15------
2024-04-14 02:54 pm-------29.78-------
2024-04-14 02:48 pm-------29.79- 54.5 49.8----
2024-04-14 02:42 pm-------29.80- 54.3 49.8----
2024-04-14 02:36 pm-------29.80- 54.5 49.8----
2024-04-14 02:30 pm-------29.81- 54.5 49.8----
2024-04-14 02:24 pm-------29.81- 54.3 49.8----
2024-04-14 02:18 pm-------29.82- 54.5 49.8----
2024-04-14 02:12 pm-------29.82- 54.3 49.6----
2024-04-14 02:06 pm-------29.83- 54.3 49.3----
2024-04-14 02:00 pm-------29.83-0.09 54.5 49.1----
2024-04-14 01:54 pm-------29.84- 54.5 49.1----
2024-04-14 01:48 pm-------29.85- 54.3 48.9----
2024-04-14 01:42 pm-------29.85- 54.7 48.9----
2024-04-14 01:36 pm-------29.85- 54.3 48.9----
2024-04-14 01:30 pm-------29.86- 54.1 48.9----
2024-04-14 01:24 pm-------29.86- 54.1 48.7----
2024-04-14 01:18 pm-------29.87- 54.0 48.7----
2024-04-14 01:12 pm-------29.87- 54.0 48.7----
2024-04-14 01:06 pm-------29.88- 54.3 48.7----
2024-04-14 01:00 pm-------29.88-0.08 54.1 48.7----
2024-04-14 12:54 pm-------29.89- 54.1 48.7----
2024-04-14 12:48 pm-------29.90-- 48.7----
2024-04-14 12:42 pm-------29.90-- 48.7----
2024-04-14 12:36 pm-------29.90-- 48.7----
2024-04-14 12:30 pm-------29.90-- 48.7----
2024-04-14 12:24 pm-------29.90-- 48.7----
2024-04-14 12:18 pm-------29.91- 53.2 48.7----
2024-04-14 12:12 pm-------29.91- 53.2 48.6----
2024-04-14 12:06 pm-------29.92- 54.0 48.6----
2024-04-14 12:00 pm-------29.92-0.04 54.7 48.6----
2024-04-14 11:54 am-------29.92- 54.0 48.4----
2024-04-14 11:48 am-------29.92- 54.5 48.4----
2024-04-14 11:42 am-------29.92- 53.4 48.4----
2024-04-14 11:36 am-------29.92- 52.7 48.6----
2024-04-14 11:30 am-------29.92-- 48.6----
2024-04-14 11:24 am-------29.93-- 48.6----
2024-04-14 11:18 am-------29.92-- 48.6----
2024-04-14 11:12 am-------29.92-- 48.6----
2024-04-14 11:06 am-------29.92-- 48.2----
2024-04-14 11:00 am-------29.92-0.06 51.8 48.0----
2024-04-14 10:54 am-------29.93- 51.8 48.2----
2024-04-14 10:48 am-------29.93- 52.0 48.0----
2024-04-14 10:42 am-------29.93-- 47.8----
2024-04-14 10:36 am-------29.94-- 48.0----
2024-04-14 10:30 am-------29.95-- 48.2----
2024-04-14 10:24 am-------29.95-- 48.0----
2024-04-14 10:18 am-------29.96-- 48.0----
2024-04-14 10:12 am-------29.96-- 48.0----
2024-04-14 10:06 am-------29.96-- 48.0----
2024-04-14 10:00 am-------29.96+0.00- 47.8----
2024-04-14 09:54 am-------29.96-- 47.8----
2024-04-14 09:48 am-------29.96- 61.3 47.8----
2024-04-14 09:42 am-------29.96- 61.0 47.8----
2024-04-14 09:36 am-------29.96- 60.3 47.8----
2024-04-14 09:30 am-------29.96-- 47.8----
2024-04-14 09:24 am-------29.96-- 47.8----
2024-04-14 09:18 am-------29.96- 56.3 47.8----
2024-04-14 09:12 am-------29.96- 56.8 47.8----
2024-04-14 09:06 am-------29.97- 56.5 47.8----
2024-04-14 09:00 am-------29.97- 56.1 47.8----
2024-04-14 08:54 am-------29.97- 56.3 47.8----
2024-04-14 08:48 am-------29.98- 54.3 47.8----
2024-04-14 08:42 am-------29.98- 53.6 47.8----
2024-04-14 08:36 am-------29.98- 54.9 47.8----
2024-04-14 08:30 am-------29.98-- 48.0----
2024-04-14 08:24 am-------29.98-- 48.0----
2024-04-14 08:18 am-------29.98- 52.5 48.0----
2024-04-14 08:12 am-------29.98- 53.6 48.0----
2024-04-14 08:06 am-------29.98- 56.1 48.0----
2024-04-14 08:00 am-------29.98+0.05- 48.2----
2024-04-14 07:54 am-------29.98-- 48.2----
2024-04-14 07:48 am-------29.98-- 48.2----
2024-04-14 07:42 am-------29.97-- 48.4----
2024-04-14 07:36 am-------29.97-- 48.4----
2024-04-14 07:30 am-------29.97- 58.1 48.4----
2024-04-14 07:24 am-------29.97- 58.3 48.4----
2024-04-14 07:18 am-------29.97-------
2024-04-14 07:12 am-------29.96-------
2024-04-14 07:06 am-------29.96-------
2024-04-14 07:00 am-------29.96+0.04 54.5 48.4----
2024-04-14 06:54 am-------29.96- 54.1 48.4----
2024-04-14 06:48 am-------29.96-- 48.4----
2024-04-14 06:42 am-------29.96-- 48.4----
2024-04-14 06:36 am-------29.96-- 48.6----
2024-04-14 06:30 am-------29.96- 52.3 48.6----
2024-04-14 06:24 am-------29.96- 52.0 48.6----
2024-04-14 06:18 am-------29.96- 51.8 48.6----
2024-04-14 06:12 am-------29.96- 51.6 48.6----
2024-04-14 06:06 am-------29.95- 51.4 48.6----
2024-04-14 06:00 am--------- 51.4-----
2024-04-14 05:54 am--------- 51.6-----
2024-04-14 05:48 am--------- 51.6 48.7----
2024-04-14 05:42 am--------- 51.6 48.7----
2024-04-14 05:36 am--------- 51.4 48.7----
2024-04-14 05:30 am-------29.94-- 48.7----
2024-04-14 05:24 am-------29.94-- 48.7----
2024-04-14 05:18 am-------29.94- 51.6 48.7----
2024-04-14 05:12 am-------29.94- 51.6 48.7----
2024-04-14 05:06 am-------29.94- 51.8 48.7----
2024-04-14 05:00 am-------29.93+0.02 52.0 48.7----
2024-04-14 04:54 am-------29.93- 51.8 48.7----
2024-04-14 04:48 am-------29.94- 51.4 48.7----
2024-04-14 04:42 am-------29.94- 51.4 48.7----
2024-04-14 04:36 am-------29.94- 51.6 48.7----
2024-04-14 04:30 am-------29.94- 51.6 48.7----
2024-04-14 04:24 am-------29.94- 52.0 48.7----
2024-04-14 04:18 am-------29.93- 51.6 48.7----
2024-04-14 04:12 am-------29.93- 51.6 48.7----
2024-04-14 04:06 am-------29.93- 51.3 48.7----
2024-04-14 04:00 am-------29.93+0.02 50.9 48.7----
2024-04-14 03:54 am-------29.93- 51.3 48.7----
2024-04-14 03:48 am-------29.93- 51.4 48.7----
2024-04-14 03:42 am-------29.93- 51.3 48.9----
2024-04-14 03:36 am-------29.93- 51.4 48.9----
2024-04-14 03:30 am-------29.93- 51.6 48.9----
2024-04-14 03:24 am-------29.92- 51.6 48.9----
2024-04-14 03:18 am-------29.92- 51.8 48.9----
2024-04-14 03:12 am-------29.92- 51.8 48.9----
2024-04-14 03:06 am-------29.92- 51.4 48.9----
2024-04-14 03:00 am-------29.92+0.03 51.4 48.9----
2024-04-14 02:54 am-------29.92- 51.4 48.9----
2024-04-14 02:48 am-------29.92- 51.4 48.9----
2024-04-14 02:42 am-------29.92- 51.6 48.9----
2024-04-14 02:36 am-------29.92- 51.8 48.9----
2024-04-14 02:30 am-------29.91- 51.8 48.9----
2024-04-14 02:24 am-------29.91- 51.8 48.9----
2024-04-14 02:18 am-------29.91- 51.8 48.9----
2024-04-14 02:12 am-------29.91- 51.8 48.9----
2024-04-14 02:06 am-------29.91- 52.0 48.9----
2024-04-14 02:00 am-------29.91+0.04 52.2 48.9----
2024-04-14 01:54 am-------29.92- 52.3 48.9----
2024-04-14 01:48 am-------29.91- 52.7 48.9----
2024-04-14 01:42 am-------29.91- 52.5 48.9----
2024-04-14 01:36 am-------29.92- 52.7 48.9----
2024-04-14 01:30 am-------29.91- 52.5 48.9----
2024-04-14 01:24 am-------29.92- 52.5 48.9----
2024-04-14 01:18 am-------29.91- 52.3 48.9----
2024-04-14 01:12 am-------29.91- 52.7 48.9----
2024-04-14 01:06 am-------29.91- 53.1 48.9----
2024-04-14 01:00 am-------29.91+0.06 53.1 48.9----
2024-04-14 12:54 am-------29.91- 53.2 48.9----
2024-04-14 12:48 am-------29.91- 53.4 48.9----
2024-04-14 12:42 am-------29.91- 53.4 48.9----
2024-04-14 12:36 am-------29.91- 53.4 48.9----
2024-04-14 12:30 am-------29.91- 53.1 48.9----
2024-04-14 12:24 am-------29.90- 53.2 48.9----
2024-04-14 12:18 am-------29.90- 53.1 48.9----
2024-04-14 12:12 am-------29.90- 53.1 48.9----
2024-04-14 12:06 am-------29.90- 53.2 48.9----
2024-04-14 12:00 am-------29.89+0.07 53.6 48.9----
2024-04-13 11:54 pm-------29.89- 53.6 48.9----
2024-04-13 11:48 pm-------29.89- 53.8 48.9----
2024-04-13 11:42 pm-------29.89- 54.0 48.9----
2024-04-13 11:36 pm-------29.89- 54.1 48.9----
2024-04-13 11:30 pm-------29.88- 54.1 48.9----
2024-04-13 11:24 pm-------29.88- 54.3 48.9----
2024-04-13 11:18 pm-------29.88- 54.5 48.9----
2024-04-13 11:12 pm-------29.88- 54.3 48.9----
2024-04-13 11:06 pm-------29.88- 54.3 48.9----
2024-04-13 11:00 pm-------29.87+0.09 54.3 48.9----
2024-04-13 10:54 pm-------29.87- 54.5 48.9----